GW3793 Weather Reports


Display with metric or nautical units.
time (UTC)temp
F
wind
direction
speed
MPH
gust
MPH
rain 1hr
in
rain 24hr
in
rain mn
in
humidity
%
barometer
mb
20260905170903 50 154 1.0 5.0 0.00 0.15 0.01 97 1020.5
20260905170003 49 157 1.0 5.0 0.00 0.15 0.01 97 1020.4
20260905165403 49 159 2.0 5.0 0.00 0.15 0.01 98 1020.6
20260905164503 48 144 2.0 5.0 0.00 0.15 0.01 98 1020.3
20260905163603 47 162 2.0 5.0 0.00 0.15 0.01 99 1020.4
20260905162917 46 165 2.0 4.0 0.00 0.15 0.01 99 1020.4
20260905161803 44 157 1.0 4.0 0.00 0.15 0.01 99 1020.5
20260905160903 44 139 1.0 4.0 0.00 0.15 0.01 99 1020.4
20260905160217 44 123 1.0 3.0 0.00 0.15 0.01 99 1021.0
20260905155403 43 132 1.0 4.0 0.00 0.15 0.01 99 1020.7
20260905154503 43 154 1.0 2.0 0.00 0.15 0.01 99 1020.6
20260905153604 43 146 1.0 3.0 0.00 0.15 0.01 99 1020.5
20260905152917 42 137 1.0 4.0 0.00 0.15 0.01 99 1020.4
20260905151803 42 139 1.0 3.0 0.00 0.15 0.01 99 1020.6
20260905150903 42 114 2.0 6.0 0.00 0.15 0.01 99 1020.2
20260905150217 42 114 2.0 6.0 0.00 0.15 0.01 99 1020.3
20260905145404 42 126 2.0 4.0 0.00 0.15 0.01 99 1020.5
20260905144503 42 119 1.0 5.0 0.00 0.15 0.01 99 1020.6
20260905143604 42 116 1.0 5.0 0.00 0.15 0.01 99 1020.3
20260905142703 42 117 3.0 5.0 0.00 0.15 0.01 99 1020.2
20260905142018 42 118 2.0 5.0 0.00 0.15 0.01 99 1020.2
20260905140903 41 117 2.0 4.0 0.00 0.15 0.01 99 1020.1
20260905140003 41 114 2.0 4.0 0.00 0.15 0.01 99 1019.9
20260905135405 41 113 2.0 4.0 0.00 0.15 0.01 99 1019.9
20260905134503 41 111 2.0 6.0 0.00 0.15 0.01 99 1019.9
20260905133603 41 112 2.0 5.0 0.00 0.15 0.01 99 1019.9
20260905132703 40 82 1.0 3.0 0.00 0.15 0.01 98 1019.8
20260905131803 41 109 1.0 6.0 0.00 0.15 0.01 98 1019.7
20260905130905 40 109 2.0 6.0 0.00 0.15 0.01 98 1019.9
20260905130003 40 104 1.0 5.0 0.00 0.15 0.01 98 1019.9
20260905125403 40 106 1.0 5.0 0.00 0.15 0.01 99 1019.5
20260905124503 40 62 1.0 4.0 0.00 0.15 0.01 98 1019.4
20260905123603 40 40 1.0 2.0 0.00 0.15 0.01 98 1019.5
20260905122703 40 76 0.0 2.0 0.00 0.15 0.00 98 1019.5
20260905121803 40 37 1.0 2.0 0.00 0.15 0.00 97 1019.6
20260905120905 41 22 1.0 2.0 0.00 0.15 0.00 97 1019.4
20260905120003 41 44 0.0 3.0 0.00 0.15 0.00 97 1019.3
20260905115403 42 85 1.0 4.0 0.00 0.15 0.00 98 1019.3
20260905114503 42 113 1.0 4.0 0.00 0.15 0.00 98 1019.4
20260905113818 42 114 1.0 4.0 0.00 0.15 0.00 98 1019.5
20260905112704 42 122 1.0 5.0 0.00 0.15 0.00 98 1019.5
20260905111803 42 105 1.0 7.0 0.00 0.15 0.00 98 1019.7
20260905110903 42 117 2.0 4.0 0.00 0.15 0.00 98 1019.5
20260905110003 42 118 1.0 4.0 0.00 0.15 0.00 98 1019.4
20260905105617 42 119 1.0 4.0 0.00 0.15 0.00 98 1019.7
20260905104718 42 125 1.0 4.0 0.00 0.15 0.00 98 1019.6
20260905103603 42 101 1.0 4.0 0.00 0.15 0.00 98 1019.4
20260905102919 42 107 1.0 4.0 0.00 0.15 0.00 98 1019.4
20260905101803 43 118 1.0 5.0 0.00 0.15 0.00 98 1019.7
20260905100905 42 98 1.0 5.0 0.00 0.15 0.00 98 1019.6
20260905100003 43 112 1.0 5.0 0.00 0.15 0.00 98 1019.4
20260905095403 43 105 1.0 5.0 0.00 0.15 0.00 98 1019.4
20260905094718 43 107 2.0 5.0 0.00 0.15 0.00 98 1019.3
20260905093603 43 112 2.0 6.0 0.00 0.15 0.00 98 1019.5
20260905092703 43 115 1.0 5.0 0.00 0.15 0.00 97 1019.4
20260905091803 44 121 2.0 4.0 0.00 0.15 0.00 98 1019.3
20260905090903 44 113 2.0 6.0 0.00 0.15 0.00 98 1019.4
20260905090003 44 113 2.0 6.0 0.00 0.15 0.00 98 1019.3
20260905085403 44 113 2.0 6.0 0.00 0.15 0.00 98 1019.0
20260905084503 44 104 1.0 5.0 0.00 0.15 0.00 98 1019.3
20260905083603 44 88 0.0 3.0 0.00 0.16 0.00 97 1018.8
20260905082705 44 43 0.0 3.0 0.00 0.16 0.00 97 1019.0
20260905082017 44 44 0.0 3.0 0.00 0.16 0.00 97 1018.9
20260905080903 44 81 1.0 4.0 0.00 0.16 0.00 98 1018.9
20260905080004 45 116 1.0 6.0 0.00 0.17 0.00 97 1018.8
20260905075403 45 117 1.0 5.0 0.00 0.17 0.00 97 1018.8
20260905074503 45 110 2.0 5.0 0.00 0.17 0.00 97 1018.7
20260905073603 45 122 2.0 4.0 0.00 0.17 0.00 97 1018.7
20260905072703 46 110 2.0 5.0 0.00 0.17 0.00 97 1018.7
20260905071803 46 93 1.0 6.0 0.00 0.17 0.00 97 1018.8
20260905070903 46 118 2.0 6.0 0.00 0.17 0.00 97 1018.7
20260905070003 46 111 2.0 6.0 0.00 0.17 0.00 98 1018.5
20260905065403 46 113 3.0 7.0 0.00 0.17 0.17 98 1018.6
20260905064503 46 117 3.0 7.0 0.00 0.17 0.17 98 1018.5
20260905063605 46 121 3.0 7.0 0.00 0.17 0.17 98 1018.4
20260905062704 47 120 3.0 7.0 0.00 0.18 0.17 98 1018.5
20260905061803 47 122 2.0 6.0 0.00 0.18 0.17 98 1018.1
20260905060903 47 114 2.0 6.0 0.00 0.18 0.17 98 1018.3
20260905060005 47 125 2.0 6.0 0.00 0.19 0.17 98 1018.4
20260905055403 47 134 2.0 6.0 0.00 0.19 0.17 98 1018.3
20260905054503 47 124 2.0 4.0 0.00 0.20 0.17 98 1018.3
20260905053818 47 111 1.0 4.0 0.00 0.20 0.17 98 1018.5
20260905052917 47 111 1.0 4.0 0.00 0.21 0.17 98 1018.1
20260905051803 47 116 2.0 9.0 0.00 0.22 0.17 98 1018.1
20260905050903 47 117 2.0 6.0 0.00 0.23 0.17 98 1018.3
20260905050003 47 119 2.0 5.0 0.00 0.24 0.17 98 1018.5
20260905045405 47 119 1.0 5.0 0.00 0.24 0.17 98 1018.4
20260905044503 47 136 2.0 7.0 0.00 0.24 0.17 98 1018.4
20260905043603 47 142 2.0 7.0 0.00 0.24 0.17 98 1018.3
20260905042703 47 127 2.0 6.0 0.00 0.25 0.17 98 1018.3
20260905041803 47 144 2.0 7.0 0.00 0.26 0.17 98 1018.0
20260905040904 47 147 2.0 7.0 0.00 0.26 0.17 98 1017.9
20260905040005 47 152 2.0 7.0 0.00 0.27 0.17 98 1017.9
20260905035403 47 136 1.0 4.0 0.00 0.27 0.17 98 1018.0
20260905034503 47 143 1.0 4.0 0.00 0.28 0.17 98 1018.0
20260905033603 47 142 2.0 4.0 0.00 0.28 0.17 98 1018.0
20260905032703 47 156 2.0 5.0 0.00 0.28 0.17 98 1017.7
20260905031803 47 156 2.0 3.0 0.01 0.29 0.17 98 1017.8
20260905030903 47 154 2.0 5.0 0.01 0.29 0.17 98 1017.5
20260905030005 47 155 2.0 6.0 0.01 0.30 0.17 97 1017.6
20260905025618 47 151 2.0 7.0 0.01 0.29 0.17 97 1017.4
20260905024503 47 152 3.0 5.0 0.01 0.30 0.17 97 1017.1
20260905023603 48 143 2.0 6.0 0.02 0.30 0.17 97 1017.1
20260905022703 48 143 2.0 5.0 0.02 0.31 0.17 97 1017.1
20260905021803 49 139 2.0 4.0 0.02 0.31 0.17 97 1016.8
20260905020903 49 141 2.0 7.0 0.03 0.31 0.17 97 1016.9
20260905020003 49 152 1.0 3.0 0.04 0.31 0.17 98 1017.0
20260905015403 49 150 2.0 5.0 0.04 0.31 0.16 98 1016.7
20260905014504 49 161 2.0 4.0 0.04 0.31 0.16 97 1016.5
20260905013603 49 165 3.0 7.0 0.04 0.31 0.15 97 1016.6
20260905012703 50 164 2.0 5.0 0.05 0.30 0.15 98 1016.7
20260905012017 50 165 2.0 6.0 0.06 0.30 0.15 98 1016.6
20260905011118 50 166 3.0 6.0 0.06 0.29 0.14 97 1016.5
20260905010003 50 160 2.0 4.0 0.07 0.28 0.13 98 1016.4
20260905005403 50 156 1.0 2.0 0.07 0.28 0.12 97 1016.1
20260905004503 50 153 2.0 3.0 0.07 0.28 0.12 97 1015.9
20260905003603 50 163 1.0 3.0 0.06 0.27 0.11 97 1016.0
20260905002917 50 153 1.0 3.0 0.06 0.26 0.10 97 1015.9
20260905001803 50 166 0.0 2.0 0.04 0.24 0.08 97 1015.7
20260905000903 50 160 1.0 2.0 0.02 0.23 0.07 97 1015.9
20260905000003 50 154 1.0 2.0 0.01 0.22 0.06 97 1015.5
20260904235403 50 164 1.0 2.0 0.00 0.21 0.05 97 1015.5
20260904234503 50 175 0.0 1.0 0.00 0.21 0.05 97 1015.6
20260904233818 50 0 0.0 0.0 0.00 0.21 0.05 97 1015.2
20260904232703 50 186 0.0 2.0 0.00 0.22 0.05 97 1015.3
20260904231803 50 175 1.0 2.0 0.00 0.22 0.05 97 1015.1
20260904231118 50 172 1.0 2.0 0.00 0.22 0.05 97 1015.3
20260904230003 49 183 0.0 2.0 0.00 0.22 0.05 97 1015.6
20260904225616 49 183 0.0 2.0 0.00 0.23 0.05 97 1015.2
20260904224503 49 173 0.0 1.0 0.00 0.24 0.05 97 1015.5
20260904223603 49 168 0.0 1.0 0.00 0.24 0.05 97 1015.2
20260904222703 49 180 0.0 2.0 0.00 0.25 0.05 97 1015.2
20260904221803 49 221 0.0 2.0 0.00 0.25 0.05 97 1015.3
20260904220903 49 236 0.0 1.0 0.00 0.25 0.05 97 1015.1
20260904220003 49 29 0.0 2.0 0.00 0.26 0.05 97 1015.3
20260904215403 49 110 0.0 2.0 0.00 0.26 0.05 97 1015.2
20260904214503 49 177 0.0 2.0 0.00 0.26 0.05 97 1015.1
20260904213603 49 172 0.0 2.0 0.00 0.26 0.05 97 1015.0
20260904212705 49 109 0.0 2.0 0.00 0.27 0.05 97 1015.2
20260904211803 48 265 0.0 4.0 0.01 0.28 0.05 97 1014.8
20260904210903 48 52 0.0 4.0 0.00 0.28 0.04 97 1014.9
20260904210003 48 51 0.0 4.0 0.01 0.29 0.04 97 1014.7
20260904205403 48 172 0.0 1.0 0.01 0.30 0.04 97 1014.8
20260904204503 48 222 0.0 2.0 0.01 0.30 0.04 97 1014.6
20260904203603 48 249 0.0 2.0 0.01 0.31 0.04 97 1014.6
20260904202703 48 237 0.0 2.0 0.01 0.33 0.04 97 1014.7
20260904201803 48 243 0.0 2.0 0.01 0.33 0.04 97 1014.7
20260904200905 48 250 0.0 2.0 0.01 0.33 0.04 97 1014.8
20260904200003 48 293 0.0 2.0 0.00 0.34 0.04 97 1014.4
20260904195403 48 294 0.0 2.0 0.00 0.34 0.03 97 1014.7
20260904194717 48 0 0.0 0.0 0.00 0.35 0.03 97 1014.7
20260904193604 48 196 0.0 2.0 0.00 0.35 0.03 97 1014.7
20260904192703 48 144 0.0 1.0 0.00 0.36 0.03 97 1014.3
20260904191803 48 182 0.0 1.0 0.00 0.36 0.03 97 1014.6
20260904190903 48 127 0.0 2.0 0.00 0.37 0.03 97 1014.4
20260904190003 48 69 0.0 1.0 0.00 0.37 0.03 97 1014.4
20260904185403 48 270 0.0 1.0 0.00 0.38 0.03 97 1014.3
20260904184503 48 186 0.0 3.0 0.00 0.38 0.03 97 1014.4
20260904183603 48 156 0.0 1.0 0.00 0.39 0.03 97 1014.6
20260904182703 48 224 0.0 2.0 0.00 0.39 0.03 97 1014.2
20260904181803 48 251 0.0 2.0 0.00 0.40 0.03 97 1014.3
20260904180903 48 199 0.0 2.0 0.00 0.41 0.03 97 1014.2
20260904180217 48 205 0.0 2.0 0.00 0.41 0.03 97 1014.2
20260904175403 48 192 0.0 2.0 0.00 0.41 0.03 97 1014.1
20260904174503 48 151 0.0 3.0 0.00 0.41 0.03 97 1014.1
20260904173603 48 206 0.0 3.0 0.00 0.41 0.03 97 1014.0
20260904172703 48 89 0.0 3.0 0.00 0.41 0.03 97 1013.8
20260904171803 47 187 0.0 2.0 0.00 0.41 0.03 97 1013.9